AirNav   Phillips 66 Aviation Fuel
 
 1647 users online  

1J9 Fort Walton Beach Airport
Navarre, Florida, USA

GOING TO NAVARRE?


FAA INFORMATION EFFECTIVE 19 JULY 2018

Location

FAA Identifier: 1J9
Lat/Long: 30-24-22.7000N / 086-49-45.1000W
30-24.378333N / 086-49.751667W
30.4063056 / -86.8291944
(estimated)
Elevation: 22 ft. / 6.7 m (surveyed)
Variation: 01E (1985)
From city: 2 miles E of NAVARRE, FL
Time zone: UTC -5 (UTC -6 during Standard Time)
Zip code: 32566

Airport Operations

Airport use: Open to the public
Activation date: 05/1969
Control tower: no
ARTCC: JACKSONVILLE CENTER
FSS: GAINESVILLE FLIGHT SERVICE STATION
NOTAMs facility: GNV (NOTAM-D service available)
Attendance: 1000-DUSK
Wind indicator: yes
Segmented circle: no

Airport Communications

CTAF/UNICOM: 122.7
WX ASOS at DTS (19 nm E): PHONE 850-654-7128
WX ASOS at PNS (19 nm W): PHONE 850-436-4799

Nearby radio navigation aids

VOR radial/distance  VOR name  Freq  Var
CEWr194/26.4CRESTVIEW VORTAC115.9003E
NUNr098/(26.5)SAUFLEY VOR108.8001E

 
NDB name  Hdg/Dist  Freq  Var  ID
PICKENS098/18.232602WPKZ .--. -.- --..

Airport Services

Airframe service: NONE
Powerplant service: NONE
Bottled oxygen: NONE
Bulk oxygen: NONE

Runway Information

Runway 18/36

Dimensions: 2100 x 65 ft. / 640 x 20 m
Surface: turf, in poor condition
RWY 18/36 BARE SPOTS SOFT & SANDY SOUTH OF RWYS MID POINT.
Gradient: N
Operational restrictions: ALL TKOFS RY 18; ALL LNDGS RY 36.
RUNWAY 18  RUNWAY 36
Latitude: 30-24.551792N30-24.205292N
Longitude: 086-49.750332W086-49.754368W
Elevation: 22.0 ft.2.0 ft.
Gradient: 1.0% UP
Traffic pattern: leftleft
Runway heading: 180 magnetic, 181 true000 magnetic, 001 true
Obstructions: 40 ft. tree, 280 ft. from runway, 85 ft. left of centerline, 7:1 slope to clear
RY 18 20:1 APPROACH TO THE DSPLCD THLD.
6 ft. brush, 170 ft. from runway, 40 ft. right of centerline, 32:1 slope to clear
BRUSH IN PRIMARY SFC & TRANSITION ZONES FY 36 +/- 100 FT FROM CNTRLN. ACFT PARKED 80 FT FROM CNTRLN.

Airport Ownership and Management from official FAA records

Ownership: Privately-owned
Owner: BOOMER AVIATION INC.
P.O. BOX 1075
FORT WALTON, FL 32549
Phone 850-244-1313
CONTACT PERSON; SANDY WILLIAMS, 850-244-1313
Manager: SANDY WILLIAMS
P.O. BOX 1075, P.O. BOX
FT WALTON BEACH, FL 32549
Phone (850) 244-1313

Airport Operational Statistics

Aircraft based on the field: 8
Single engine airplanes: 8
    
Aircraft operations: avg 22/day *
91% local general aviation
9% transient general aviation
* for 12-month period ending 15 March 2017

Additional Remarks

RY 18/36 SLOPES TO 3 FT ELEVATION AT SOUTH END.
BANNER TOWING.
RY 18/36 MARKED WITH WHITE CONES.
ARPT CLSD TO HELICOPTERS MORE THAN 2500 LBS.

Instrument Procedures

There are no published instrument procedures at 1J9.

Some nearby airports with instrument procedures:

KHRT - Hurlburt Field Airport (7 nm E)
2R4 - Peter Prince Field Airport (16 nm NW)
KVPS - Eglin Air Force Base/Destin-Fort Walton Beach Airport (16 nm E)
KDTS - Destin Executive Airport (19 nm E)
KPNS - Pensacola International Airport (19 nm W)
KNDZ - Whiting Field Naval Air Station South (20 nm NW)
 
Loc | Ops | Rwys | IFR | FBO | Links
Com | Nav | Svcs | Stats | Notes


 
Area around 1J9 (Fort Walton Beach Airport)
 
Road maps at: MapQuest Bing Google
 
Aerial photo
WARNING: Photo may not be current or correct
Aerial photo of 1J9 (Fort Walton Beach Airport)
Photo by Scott Jackson - PhotosFlorida.com
Photo taken 04-Oct-2007
looking north

Do you have a better or more recent aerial photo of Fort Walton Beach Airport that you would like to share? If so, please send us your photo.

 
Sectional chart

 
Airport distance calculator
Flying to Fort Walton Beach Airport? Find the distance to fly.

From to 1J9

Sunrise and sunset
Times for 23-Jul-2018
 Local
(UTC-5)
 Zulu
(UTC)
Morning civil twilight05:3410:34
Sunrise06:0111:01
Sunset19:4600:46
Evening civil twilight20:1301:13

Current date and time
Zulu (UTC)  23-Jul-2018 15:15:03
Local (UTC-5)  23-Jul-2018 10:15:03
 
METAR
KHRT 
8nm E 
231456Z 36010KT 10SM FEW250 30/16 A2980 RMK AO2A SLP093 T02990156 51010 $
KVPS 
17nm E 
231455Z 35008KT 10SM FEW250 30/20 A2980 RMK AO2A SLP097 T02960201 52008 $
KDTS 
19nm E 
231453Z 01006KT 10SM CLR 30/21 A2981 RMK AO2 SLP093 T03000211 51008
KPNS 
19nm W 
231453Z 33009KT 10SM CLR 29/19 A2982 RMK AO2 SLP097 T02940194 50004
TAF
KHRT 
8nm E 
230900Z 2309/2415 34006KT 9999 FEW040 SCT300 QNH2975INS BECMG 2317/2318 30009KT 8000 -SHRA VCTS SCT040CB BKN300 QNH2977INS TEMPO 2319/2322 28010G15KT 6000 -TSRA BKN030CB BECMG 2323/2324 VRB06KT 9999 NSW SCT030 BKN050 QNH2978INS TX31/2318Z TN23/2310Z
KVPS 
17nm E 
230900Z 2309/2415 33005KT 9999 FEW070 SCT250 QNH2975INS BECMG 2315/2316 31009KT 9999 FEW030 SCT050 SCT250 QNH2982INS BECMG 2319/2320 25010G15KT 9999 VCTS FEW030CB BKN050 BKN120 BKN250 QNH2978INS TEMPO 2320/2401 25015G25KT 4800 -TSRA BKN030CB OVC120 BECMG 2400/2401 32006KT 9999 NSW FEW050 SCT250 QNH2980INS TX33/2319Z TN23/2310Z
KPNS 
19nm W 
231202Z 2312/2412 33006KT P6SM SCT250 FM231700 32007KT P6SM FEW250 FM240100 VRB03KT P6SM OVC250
NOTAMs
Click for the latest NOTAMs
NOTAMs are issued by the DoD/FAA and will open in a separate window not controlled by AirNav.

 

 
 

Would you like to see your business listed on this page?

 If your business provides an interesting product or service to pilots, flight crews, aircraft, or users of the Fort Walton Beach Airport, you should consider listing it here.  To start the listing process, click on the button below
 
Add a business
 

Other Pages about Fort Walton Beach Airport

Update a link
 
Copyright © AirNav, LLC. All rights reserved. Privacy Policy  Contact